METAR Formatted Surface Weather Observation
Issued by NWS Tiyan, Guam

Home | Current Version | Previous Version | Text Only | Print | Product List | Glossary On
Versions: 1 2 3 4 5 6 7 8 9 10 11 12 13 14 15 16 17 18 19 20 21 22 23 24 25 26 27 28 29 30 31 32 33 34 35 36 37 38 39 40 41 42 43 44 45 46 47 48 49 50
000
SAGM31 PGUM 111155
MTRGUM
METAR PGUM 111154Z 05007KT 10SM SCT029 SCT035 BKN050 28/24 A2986 RMK
AO2 SLP102 60000 T02780244 10294 20278 53006


USA.gov is the U.S. government's official web portal to all federal, state and local government web resources and services.